Flag Island, MN

9:46 PM CDT on August 16, 2017 (GMT -0500)
Flag Island

Weather History for KFGN - June, 2013

Change the Weather History Date:

Sunday, June 23, 2013

  Actual Average Record
Temperature  
Mean Temperature 66 °F -  
Max Temperature 69 °F 67 °F 84 °F (2005)
Min Temperature 62 °F 54 °F 46 °F (2004)
Growing Degree Days 16 (Base 50)    
Moisture  
Dew Point 61 °F    
Average Humidity 85    
Maximum Humidity 94    
Minimum Humidity 68    
Precipitation  
Precipitation 0.32 in - - ()
Sea Level Pressure  
Sea Level Pressure 29.67 in    
Wind  
Wind Speed 11 mph (SSE)    
Max Wind Speed 26 mph    
Max Gust Speed 34 mph    
Visibility 8 miles    
Events Rain    
Averages and records for this station are not official NWS values.
T = Trace of Precipitation, MM = Missing Value Source: NWS Daily Summary

Daily Weather History Graph

Daily Weather History Graph

Search for Another Location

Airport or City:

Trip Planner

Search our weather history database for the weather conditions in past years. The results will help you decide how hot, cold, wet, or windy it might be!

Date:

Astronomy

Jun. 23, 2013 Rise Set
Actual Time 5:14 AM CDT 9:29 PM CDT
Civil Twilight 4:30 AM CDT 10:12 PM CDT
Nautical Twilight 3:28 AM CDT 11:15 PM CDT
Astronomical Twilight 1:54 AM CDT 12:49 AM CDT
Moon 9:33 PM CDT (6/23) 5:39 AM CDT (6/23)
Length of Visible Light 17h 41m
Length of Day
16h 15m
Full, 100% of the Moon is Illuminated
Jun 23
Full
Jun 29
Last Quarter
Jul 8
New
Jul 15
First Quarter
Jul 22
Full

Hourly Weather History & Observations

Time (CDT) Temp. Dew Point Humidity Pressure Visibility Wind Dir Wind Speed Gust Speed Precip Events Conditions
12:13 AM 66.2 °F 62.6 °F 88% 29.86 in 10.0 mi SE 8.1 mph - N/A   Mostly Cloudy
12:34 AM 66.2 °F 62.6 °F 88% 29.85 in 10.0 mi SSE 10.4 mph - N/A   Scattered Clouds
12:54 AM 66.2 °F 62.6 °F 88% 29.84 in 10.0 mi SSE 11.5 mph - N/A   Clear
1:13 AM 66.2 °F 62.6 °F 88% 29.83 in 10.0 mi SSE 11.5 mph - N/A   Clear
1:34 AM 66.2 °F 60.8 °F 83% 29.81 in 10.0 mi SSE 11.5 mph - N/A   Scattered Clouds
1:54 AM 66.2 °F 60.8 °F 83% 29.80 in 10.0 mi SSE 12.7 mph - N/A   Scattered Clouds
2:13 AM 66.2 °F 60.8 °F 83% 29.80 in 10.0 mi SSE 12.7 mph - N/A   Clear
2:34 AM 64.4 °F 60.8 °F 88% 29.78 in 10.0 mi SSE 11.5 mph - N/A   Clear
2:54 AM 64.4 °F 60.8 °F 88% 29.78 in 7.0 mi SE 5.8 mph - N/A   Mostly Cloudy
3:13 AM 64.4 °F 60.8 °F 88% 29.79 in 10.0 mi SSE 17.3 mph - N/A   Overcast
3:34 AM 64.4 °F 60.8 °F 88% 29.81 in 10.0 mi SSE 17.3 mph - N/A   Overcast
3:54 AM 64.4 °F 60.8 °F 88% 29.81 in 10.0 mi SSE 13.8 mph - N/A   Overcast
4:13 AM 64.4 °F 60.8 °F 88% 29.78 in 10.0 mi SSE 15.0 mph - N/A   Overcast
4:34 AM 64.4 °F 60.8 °F 88% 29.77 in 10.0 mi SSE 13.8 mph - N/A   Overcast
4:53 AM 64.4 °F 60.8 °F 88% 29.78 in 10.0 mi SSE 15.0 mph - N/A   Overcast
5:13 AM 64.4 °F 60.8 °F 88% 29.77 in 10.0 mi SSE 13.8 mph - N/A   Overcast
5:34 AM 64.4 °F 60.8 °F 88% 29.76 in 10.0 mi SSE 13.8 mph - N/A   Overcast
5:53 AM 64.4 °F 60.8 °F 88% 29.75 in 10.0 mi SSE 8.1 mph - N/A   Overcast
6:13 AM 64.4 °F 60.8 °F 88% 29.74 in 10.0 mi SE 8.1 mph - N/A   Overcast
6:34 AM 64.4 °F 60.8 °F 88% 29.74 in 10.0 mi SSE 12.7 mph - N/A   Overcast
6:53 AM 64.4 °F 60.8 °F 88% 29.73 in 10.0 mi SSE 9.2 mph - N/A   Overcast
7:13 AM 64.4 °F 60.8 °F 88% 29.74 in 10.0 mi SSE 13.8 mph - N/A   Overcast
7:34 AM 64.4 °F 60.8 °F 88% 29.74 in 10.0 mi SSE 12.7 mph - N/A   Overcast
7:53 AM 64.4 °F 60.8 °F 88% 29.73 in 10.0 mi SSE 12.7 mph - N/A   Overcast
8:13 AM 62.6 °F 60.8 °F 94% 29.71 in 10.0 mi SE 3.5 mph - N/A   Overcast
8:34 AM 62.6 °F 60.8 °F 94% 29.70 in 10.0 mi SE 4.6 mph - N/A   Overcast
8:53 AM 64.4 °F 60.8 °F 88% 29.71 in 10.0 mi SE 9.2 mph - N/A   Overcast
9:13 AM 64.4 °F 60.8 °F 88% 29.70 in 10.0 mi ESE 5.8 mph - N/A   Overcast
9:34 AM 64.4 °F 60.8 °F 88% 29.69 in 10.0 mi East 4.6 mph - N/A   Overcast
9:53 AM 64.4 °F 60.8 °F 88% 29.67 in 10.0 mi East 4.6 mph - N/A   Overcast
10:13 AM 64.4 °F 60.8 °F 88% 29.67 in 10.0 mi ESE 6.9 mph - N/A   Overcast
10:34 AM 64.4 °F 60.8 °F 88% 29.66 in 10.0 mi SE 4.6 mph - N/A   Overcast
10:53 AM 64.4 °F 60.8 °F 88% 29.65 in 10.0 mi SE 4.6 mph - N/A   Overcast
11:13 AM 64.4 °F 60.8 °F 88% 29.64 in 10.0 mi ESE 8.1 mph - N/A   Overcast
11:34 AM 64.4 °F 62.6 °F 94% 29.64 in 10.0 mi ESE 5.8 mph - N/A   Overcast
11:53 AM 64.4 °F 62.6 °F 94% 29.64 in 5.0 mi SE 5.8 mph - 0.03 in Rain Rain
12:13 PM 64.4 °F 62.6 °F 94% 29.63 in 10.0 mi SE 5.8 mph - 0.12 in Rain Light Rain
12:34 PM 64.4 °F 62.6 °F 94% 29.61 in 7.0 mi East 5.8 mph - 0.13 in Rain Light Rain
12:53 PM 64.4 °F 62.6 °F 94% 29.62 in 10.0 mi ESE 5.8 mph - 0.13 in   Overcast
1:13 PM 64.4 °F 62.6 °F 94% 29.60 in 10.0 mi ESE 5.8 mph - N/A   Overcast
1:34 PM 64.4 °F 62.6 °F 94% 29.59 in 10.0 mi East 6.9 mph - N/A   Overcast
1:53 PM 64.4 °F 62.6 °F 94% 29.58 in 10.0 mi ESE 5.8 mph - 0.01 in   Overcast
2:13 PM 66.2 °F 62.6 °F 88% 29.58 in 5.0 mi SE 4.6 mph - N/A   Overcast
2:34 PM 66.2 °F 62.6 °F 88% 29.57 in 10.0 mi SE 3.5 mph - N/A Rain Light Rain
2:53 PM 66.2 °F 62.6 °F 88% 29.57 in 7.0 mi SE 4.6 mph - N/A   Light Drizzle
3:13 PM 66.2 °F 64.4 °F 94% 29.56 in 5.0 mi ESE 4.6 mph - 0.01 in Rain Light Rain
3:34 PM 66.2 °F 64.4 °F 94% 29.57 in 7.0 mi South 10.4 mph - 0.01 in   Drizzle
3:53 PM 66.2 °F 64.4 °F 94% 29.56 in 4.0 mi SSE 15.0 mph - 0.04 in Rain Light Rain
4:13 PM 66.2 °F 64.4 °F 94% 29.55 in 2.5 mi SSE 17.3 mph - 0.05 in Rain Rain
4:34 PM 66.2 °F 64.4 °F 94% 29.54 in 10.0 mi SSE 17.3 mph - 0.06 in Rain Light Rain
4:53 PM 68.0 °F 64.4 °F 88% 29.54 in 10.0 mi South 16.1 mph - 0.06 in   Overcast
5:13 PM 69.8 °F 64.4 °F 83% 29.54 in 10.0 mi SSW 15.0 mph - N/A   Scattered Clouds
5:34 PM 69.8 °F 64.4 °F 83% 29.55 in 10.0 mi WSW 10.4 mph 13.8 mph N/A   Mostly Cloudy
5:53 PM 69.8 °F 64.4 °F 83% 29.55 in 10.0 mi SSW 15.0 mph - 0.05 in   Mostly Cloudy
6:14 PM 69.8 °F 64.4 °F 83% 29.54 in 10.0 mi SW 26.5 mph 34.5 mph N/A   Scattered Clouds
6:33 PM 69.8 °F 62.6 °F 78% 29.55 in 10.0 mi SW 20.7 mph 28.8 mph N/A   Clear
6:53 PM 69.8 °F 60.8 °F 73% 29.56 in 10.0 mi SW 17.3 mph 21.9 mph N/A   Clear
7:14 PM 69.8 °F 60.8 °F 73% 29.56 in 7.0 mi SW 19.6 mph 25.3 mph N/A   Clear
7:33 PM 69.8 °F 60.8 °F 73% 29.57 in 7.0 mi SW 19.6 mph - N/A   Clear
7:53 PM 69.8 °F 60.8 °F 73% 29.57 in 7.0 mi SW 16.1 mph 25.3 mph N/A   Clear
8:14 PM 69.8 °F 59.0 °F 68% 29.58 in 7.0 mi SW 19.6 mph 28.8 mph N/A   Clear
8:33 PM 66.2 °F 57.2 °F 73% 29.59 in 4.0 mi SW 21.9 mph 27.6 mph N/A   Haze
8:53 PM 66.2 °F 57.2 °F 73% 29.60 in 4.0 mi SW 21.9 mph 26.5 mph N/A   Haze
9:14 PM 66.2 °F 57.2 °F 73% 29.62 in 5.0 mi SW 19.6 mph 29.9 mph N/A   Haze
9:33 PM 64.4 °F 57.2 °F 77% 29.63 in 4.0 mi WSW 10.4 mph - N/A   Haze
9:53 PM 64.4 °F 55.4 °F 73% 29.63 in 5.0 mi SW 13.8 mph - N/A   Haze
10:14 PM 64.4 °F 55.4 °F 73% 29.64 in 7.0 mi SW 13.8 mph - N/A   Mostly Cloudy
10:33 PM 64.4 °F 55.4 °F 73% 29.65 in 7.0 mi SW 19.6 mph 27.6 mph N/A   Mostly Cloudy
10:53 PM 64.4 °F 55.4 °F 73% 29.66 in 7.0 mi SW 11.5 mph - N/A   Scattered Clouds
11:14 PM 64.4 °F 55.4 °F 73% 29.66 in 5.0 mi SW 13.8 mph - N/A   Haze
11:33 PM 62.6 °F 53.6 °F 72% 29.66 in 5.0 mi SW 15.0 mph - N/A   Haze
11:53 PM 62.6 °F 55.4 °F 77% 29.67 in 5.0 mi SW 13.8 mph - N/A   Haze